TimeMST,TemperatureF,Dew PointF,Humidity,Sea Level PressureIn,VisibilityMPH,Wind Direction,Wind SpeedMPH,Gust SpeedMPH,PrecipitationIn,Events,Conditions,WindDirDegrees,DateUTC
12:53 AM,10.0,8.1,92,30.38,10.0,West,9.2,-,N/A,,Clear,260,2013-01-09 07:53:00
1:53 AM,8.1,6.1,92,30.38,10.0,West,9.2,-,N/A,,Clear,260,2013-01-09 08:53:00
2:53 AM,8.1,5.0,87,30.38,10.0,West,10.4,-,N/A,,Clear,270,2013-01-09 09:53:00
3:53 AM,8.1,6.1,92,30.37,10.0,West,8.1,-,N/A,,Clear,270,2013-01-09 10:53:00
4:53 AM,8.1,5.0,87,30.38,10.0,West,9.2,-,N/A,,Clear,270,2013-01-09 11:53:00
5:53 AM,9.0,6.1,88,30.39,10.0,West,10.4,-,N/A,,Clear,270,2013-01-09 12:53:00
6:53 AM,7.0,5.0,92,30.43,10.0,West,11.5,-,N/A,,Clear,280,2013-01-09 13:53:00
7:53 AM,3.9,1.0,88,30.46,10.0,WSW,5.8,-,N/A,,Clear,240,2013-01-09 14:53:00
8:53 AM,1.9,1.0,96,30.52,10.0,SW,3.5,-,N/A,,Clear,230,2013-01-09 15:53:00
9:53 AM,8.1,7.0,95,30.54,10.0,Calm,Calm,-,N/A,,Clear,0,2013-01-09 16:53:00
11:53 AM,30.0,21.0,69,30.39,10.0,SSE,11.5,-,N/A,,Clear,160,2013-01-09 18:53:00
12:53 PM,32.0,21.9,66,30.34,10.0,SE,5.8,-,N/A,,Clear,140,2013-01-09 19:53:00
1:53 PM,34.0,21.9,61,30.30,10.0,SSE,9.2,-,N/A,,Clear,150,2013-01-09 20:53:00
2:53 PM,34.0,21.0,59,30.28,10.0,SSE,9.2,-,N/A,,Clear,160,2013-01-09 21:53:00
3:53 PM,34.0,18.0,52,30.27,10.0,SSE,10.4,-,N/A,,Clear,160,2013-01-09 22:53:00
4:53 PM,28.0,17.1,63,30.27,10.0,SE,8.1,-,N/A,,Clear,140,2013-01-09 23:53:00
5:53 PM,25.0,16.0,69,30.27,10.0,South,5.8,-,N/A,,Clear,170,2013-01-10 00:53:00
6:53 PM,19.9,14.0,78,30.28,10.0,Calm,Calm,-,N/A,,Clear,0,2013-01-10 01:53:00
7:53 PM,25.0,17.1,72,30.25,10.0,SSE,10.4,-,N/A,,Clear,160,2013-01-10 02:53:00
8:53 PM,23.0,16.0,74,30.25,10.0,SSE,10.4,-,N/A,,Clear,160,2013-01-10 03:53:00
9:53 PM,25.0,16.0,69,30.17,10.0,SSE,9.2,-,N/A,,Clear,150,2013-01-10 04:53:00
10:53 PM,24.1,16.0,71,30.06,10.0,South,3.5,-,N/A,,Clear,180,2013-01-10 05:53:00
11:53 PM,18.0,12.0,78,30.06,10.0,Calm,Calm,-,N/A,,Clear,0,2013-01-10 06:53:00